Date String (YYYY-MM-DD hh:mm:ss) UTC,Instrument flags,Ambient pressure (hPa),Sample flow (lpm),Bypass flow (lpm),Sample temperature (°C),Ambient temperature (°C),ASC tube jacket temperature (°C),LED temperature (°C),Box temperature (°C),Sample RH (%),Span deviation,Mass concentration (μg/m³),Mass concentration (μg/m³),Mass concentration (μg/m³)
DateTimeUTC,F1_M11,P_M11,Q1_M11,Q2_M11,T1_M11,T2_M11,T3_M11,T4_M11,T5_M11,U1_M11,ZSPAN_M11,X0_M11,X2_M11,X1_M11
2021-11-15 07:00:00,,0825.6,4.99,0.00,26.3,25.5,00.0,35.3,28.1,14.7,0000.0,0001.15,0000.63,0000.36
2021-11-15 07:01:00,,0825.7,5.01,0.00,26.3,25.5,00.0,35.3,28.1,14.7,0000.0,0001.14,0000.63,0000.36
2021-11-15 07:02:00,,0825.8,4.99,0.00,26.3,25.5,00.0,35.3,28.2,14.7,0000.0,0001.13,0000.61,0000.35
2021-11-15 07:03:00,,0825.9,5.00,0.00,26.3,25.5,00.0,35.3,28.1,14.8,0000.0,0001.16,0000.61,0000.34
2021-11-15 07:04:00,,0825.7,5.01,0.00,26.3,25.5,00.0,35.3,28.1,14.7,0000.0,0001.17,0000.61,0000.33
2021-11-15 07:05:00,,0825.6,5.00,0.00,26.3,25.5,00.0,35.4,28.1,14.4,0000.0,0001.58,0000.59,0000.33
2021-11-15 07:06:00,,0825.5,5.00,0.00,26.3,25.4,00.0,35.4,28.1,14.3,0000.0,0002.39,0000.63,0000.33
2021-11-15 07:07:00,,0825.6,5.00,0.00,26.3,25.4,00.0,35.4,28.1,14.4,0000.0,0002.64,0000.71,0000.33
2021-11-15 07:08:00,,0825.7,5.00,0.00,26.3,25.4,00.0,35.3,28.1,14.4,0000.0,0002.83,0000.75,0000.33
2021-11-15 07:09:00,,0825.7,5.00,0.00,26.3,25.5,00.0,35.3,28.1,14.6,0000.0,0002.92,0000.75,0000.33
2021-11-15 07:10:00,,0825.9,4.99,0.00,26.3,25.5,00.0,35.3,28.1,14.5,0000.0,0002.99,0000.78,0000.33
2021-11-15 07:11:00,,0825.8,5.00,0.00,26.3,25.5,00.0,35.4,28.1,14.6,0000.0,0003.02,0000.79,0000.34
2021-11-15 07:12:00,,0825.6,5.00,0.00,26.3,25.5,00.0,35.4,28.1,14.5,0000.0,0002.96,0000.78,0000.34
2021-11-15 07:13:00,,0825.7,5.00,0.00,26.3,25.5,00.0,35.4,28.1,14.3,0000.0,0003.79,0000.85,0000.34
2021-11-15 07:14:00,,0825.7,5.00,0.00,26.3,25.5,00.0,35.4,28.1,14.3,0000.0,0004.89,0000.87,0000.34
2021-11-15 07:15:00,,0825.6,4.99,0.00,26.3,25.5,00.0,35.4,28.1,14.2,0000.0,0004.75,0000.82,0000.34
2021-11-15 07:16:00,,0825.8,5.01,0.00,26.3,25.5,00.0,35.4,28.1,14.2,0000.0,0004.40,0000.82,0000.34
2021-11-15 07:17:00,,0825.7,4.99,0.00,26.3,25.5,00.0,35.4,28.2,14.4,0000.0,0003.48,0000.80,0000.34
2021-11-15 07:18:00,,0825.6,4.99,0.00,26.4,25.5,00.0,35.4,28.2,14.2,0000.0,0003.27,0000.73,0000.33
2021-11-15 07:19:00,,0825.7,5.00,0.00,26.4,25.5,00.0,35.4,28.2,14.3,0000.0,0003.12,0000.68,0000.34
2021-11-15 07:20:00,,0825.8,5.00,0.00,26.4,25.5,00.0,35.4,28.2,14.4,0000.0,0003.13,0000.67,0000.34
2021-11-15 07:21:00,,0825.7,5.00,0.00,26.4,25.6,00.0,35.4,28.2,14.4,0000.0,0003.12,0000.66,0000.34
2021-11-15 07:22:00,,0825.6,5.00,0.00,26.4,25.5,00.0,35.4,28.1,14.3,0000.0,0003.18,0000.68,0000.34
2021-11-15 07:23:00,,0825.8,5.01,0.00,26.3,25.6,00.0,35.4,28.1,14.3,0000.0,0003.25,0000.70,0000.34
2021-11-15 07:24:00,,0825.7,5.00,0.00,26.3,25.6,00.0,35.4,28.1,14.4,0000.0,0002.60,0000.63,0000.34
2021-11-15 07:25:00,,0825.6,5.00,0.00,26.4,25.6,00.0,35.4,28.2,14.3,0000.0,0001.44,0000.58,0000.34
2021-11-15 07:26:00,,0825.6,5.00,0.00,26.4,25.6,00.0,35.4,28.2,13.8,0000.0,0001.64,0000.59,0000.34
2021-11-15 07:27:00,,0825.6,5.00,0.00,26.4,25.6,00.0,35.4,28.2,14.1,0000.0,0001.75,0000.60,0000.34
2021-11-15 07:28:00,,0825.6,4.99,0.00,26.4,25.5,00.0,35.4,28.2,14.2,0000.0,0001.75,0000.60,0000.35
2021-11-15 07:29:00,,0825.6,5.01,0.00,26.4,25.5,00.0,35.4,28.2,14.0,0000.0,0001.71,0000.58,0000.35
2021-11-15 07:30:00,,0825.6,5.00,0.00,26.4,25.5,00.0,35.4,28.2,14.0,0000.0,0001.66,0000.57,0000.34
2021-11-15 07:31:00,,0825.7,5.00,0.00,26.4,25.5,00.0,35.4,28.1,14.1,0000.0,0001.73,0000.58,0000.35
2021-11-15 07:32:00,,0825.6,4.99,0.00,26.4,25.5,00.0,35.4,28.1,14.1,0000.0,0001.90,0000.57,0000.35
2021-11-15 07:33:00,,0825.5,5.00,0.00,26.4,25.5,00.0,35.4,28.2,13.7,0000.0,0001.94,0000.58,0000.35
2021-11-15 07:34:00,,0825.4,5.00,0.00,26.4,25.5,00.0,35.4,28.2,13.7,0000.0,0002.38,0000.58,0000.36
2021-11-15 07:35:00,,0825.5,5.00,0.00,26.4,25.5,00.0,35.4,28.2,13.4,0000.0,0003.52,0000.60,0000.35
2021-11-15 07:36:00,,0825.6,5.01,0.00,26.4,25.5,00.0,35.4,28.2,13.4,0000.0,0003.45,0000.60,0000.35
2021-11-15 07:37:00,,0825.5,5.00,0.00,26.4,25.5,00.0,35.4,28.2,13.6,0000.0,0003.16,0000.60,0000.35
2021-11-15 07:38:00,,0825.5,5.02,0.00,26.3,25.5,00.0,35.4,28.2,13.8,0000.0,0003.11,0000.59,0000.35
2021-11-15 07:39:00,,0825.5,4.99,0.00,26.4,25.5,00.0,35.4,28.2,13.7,0000.0,0003.09,0000.60,0000.36
2021-11-15 07:40:00,,0825.5,5.01,0.00,26.4,25.5,00.0,35.4,28.1,13.6,0000.0,0003.16,0000.62,0000.36
2021-11-15 07:41:00,,0825.4,5.00,0.00,26.4,25.5,00.0,35.4,28.2,13.6,0000.0,0003.46,0000.69,0000.37
2021-11-15 07:42:00,,0825.3,5.00,0.00,26.4,25.5,00.0,35.4,28.2,13.7,0000.0,0004.50,0000.72,0000.37
2021-11-15 07:43:00,,0825.3,4.99,0.00,26.4,25.5,00.0,35.4,28.2,13.4,0000.0,0004.81,0000.75,0000.36
2021-11-15 07:44:00,,0825.4,5.00,0.00,26.4,25.5,00.0,35.4,28.2,13.5,0000.0,0005.22,0000.78,0000.36
2021-11-15 07:45:00,,0825.5,4.99,0.00,26.4,25.5,00.0,35.4,28.2,13.5,0000.0,0006.16,0000.83,0000.37
2021-11-15 07:46:00,,0825.5,5.00,0.00,26.4,25.5,00.0,35.4,28.2,13.3,0000.0,0004.80,0000.84,0000.37
2021-11-15 07:47:00,,0825.5,5.01,0.00,26.4,25.5,00.0,35.4,28.2,13.7,0000.0,0004.74,0000.88,0000.38
2021-11-15 07:48:00,,0825.5,5.00,0.00,26.4,25.5,00.0,35.4,28.2,13.7,0000.0,0004.85,0000.92,0000.39
2021-11-15 07:49:00,,0825.5,5.00,0.00,26.4,25.5,00.0,35.4,28.3,13.6,0000.0,0005.29,0000.92,0000.39
2021-11-15 07:50:00,,0825.6,4.99,0.00,26.4,25.5,00.0,35.4,28.2,13.7,0000.0,0005.58,0000.93,0000.39
2021-11-15 07:51:00,,0825.6,5.01,0.00,26.4,25.5,00.0,35.4,28.2,13.7,0000.0,0005.75,0000.99,0000.39
2021-11-15 07:52:00,,0825.6,4.99,0.00,26.4,25.5,00.0,35.4,28.2,13.6,0000.0,0005.59,0000.97,0000.38
2021-11-15 07:53:00,,0825.6,5.00,0.00,26.4,25.5,00.0,35.4,28.2,13.5,0000.0,0005.09,0000.96,0000.38
2021-11-15 07:54:00,,0825.6,5.00,0.00,26.4,25.5,00.0,35.4,28.2,13.6,0000.0,0003.98,0000.97,0000.37
2021-11-15 07:55:00,,0825.6,5.00,0.00,26.4,25.6,00.0,35.4,28.2,13.7,0000.0,0003.76,0000.93,0000.38
2021-11-15 07:56:00,,0825.7,5.00,0.00,26.4,25.6,00.0,35.4,28.2,13.8,0000.0,0002.72,0000.86,0000.38
2021-11-15 07:57:00,,0825.6,4.99,0.00,26.4,25.6,00.0,35.4,28.1,13.6,0000.0,0002.59,0000.82,0000.37
2021-11-15 07:58:00,,0825.6,5.01,0.00,26.4,25.6,00.0,35.4,28.2,13.5,0000.0,0003.75,0000.80,0000.37
2021-11-15 07:59:00,,0825.7,4.99,0.00,26.4,25.6,00.0,35.4,28.2,13.5,0000.0,0003.67,0000.78,0000.37
